This is the latest recevied weather packets stored in our database for station/object K4PAD. If no packets are shown the sender has not sent any weather packets the latest 10 day(s).
| Time | Temp. | Humidity | Pressure | Rain* | Wind** | Luminosity | Snow |
|---|---|---|---|---|---|---|---|
| 1777997631 | 27.22° C | 46% | 1018.7 hPa | 0 mm | - | 400 W/m² | - |
| 1777997329 | 28.33° C | 42% | 1018.7 hPa | 0 mm | - | 828 W/m² | - |
| 1777997027 | 28.33° C | 43% | 1018.7 hPa | 0 mm | - | 1029 W/m² | - |
| 1777996723 | 27.78° C | 45% | 1018.9 hPa | 0 mm | - | 1036 W/m² | - |
| 1777996419 | 27.78° C | 46% | 1018.7 hPa | 0 mm | - | 1009 W/m² | - |
| 1777996116 | 27.78° C | 47% | 1018.8 hPa | 0 mm | - | 973 W/m² | - |
| 1777995813 | 27.22° C | 46% | 1018.6 hPa | 0 mm | - | 997 W/m² | - |
| 1777995509 | 27.22° C | 46% | 1018.8 hPa | 0 mm | - | 912 W/m² | - |
| 1777995206 | 26.67° C | 48% | 1018.7 hPa | 0 mm | - | 960 W/m² | - |
| 1777994903 | 26.67° C | 48% | 1018.7 hPa | 0 mm | - | 921 W/m² | - |
| 1777994600 | 27.22° C | 47% | 1018.9 hPa | 0 mm | - | 899 W/m² | - |
| 1777994299 | 26.67° C | 50% | 1018.5 hPa | 0 mm | - | 884 W/m² | - |
| 1777993997 | 26.67° C | 48% | 1018.8 hPa | 0 mm | - | 869 W/m² | - |
| 1777993694 | 26.67° C | 49% | 1018.9 hPa | 0 mm | - | 844 W/m² | - |
| 1777993391 | 26.67° C | 48% | 1018.7 hPa | 0 mm | - | 824 W/m² | - |
| 1777993085 | 26.11° C | 51% | 1018.7 hPa | 0 mm | - | 824 W/m² | - |
| 1777992784 | 26.67° C | 51% | 1018.7 hPa | 0 mm | - | 797 W/m² | - |
| 1777992480 | 26.11° C | 51% | 1018.8 hPa | 0 mm | - | 794 W/m² | - |
| 1777992179 | 25.56° C | 54% | 1018.8 hPa | 0 mm | - | 769 W/m² | - |
| 1777991875 | 25.56° C | 55% | 1018.7 hPa | 0 mm | - | 755 W/m² | - |
| 1777991573 | 25.56° C | 55% | 1019 hPa | 0 mm | - | 739 W/m² | - |
| 1777991270 | 25° C | 58% | 1018.9 hPa | 0 mm | - | 719 W/m² | - |
| 1777990967 | 25.56° C | 56% | 1018.6 hPa | 0 mm | - | 701 W/m² | - |
| 1777990665 | 26.11° C | 55% | 1018.8 hPa | 0 mm | - | 678 W/m² | - |
| 1777990362 | 25.56° C | 57% | 1018.7 hPa | 0 mm | - | 661 W/m² | - |
* Rain latest hour (hover to see other rain measurements)
** Current wind speed in m/s (hover to see current wind gust speed)